AFL1957 UACC-UUEE

Flight info

Callsign AFL1957
Flight time 3h 10m
Altitude 38000
Route KODOL1B KODOL T523 ATBAN L994 TITUR N985 ORTIM L158 DIMGI DIMGI3E
Aircraft B38M/M-SDE1FGHILORVWXY/HB1

Departure

Time 2026-04-25 18:41
Airport Nursultan Nazarbayev International Airport (UACC)

Arrival

Time 2026-04-25 21:51
Airport Sheremetyevo International Airport (UUEE)
Time Latitude Longitude Altitude Speed Heading
2026-04-25 18:11 51.02694 71.46285 1169 ft 0 kts 313°
2026-04-25 18:28 51.02685 71.46298 1170 ft 2 kts 326°
2026-04-25 18:29 51.02657 71.46314 1170 ft 2 kts 356°
2026-04-25 18:29 51.02643 71.46313 1169 ft 2 kts 11°
2026-04-25 18:30 51.02613 71.46287 1168 ft 1 kts 44°
2026-04-25 18:30 51.02611 71.46286 1168 ft 0 kts 44°
2026-04-25 18:34 51.02612 71.46286 1168 ft 0 kts 44°
2026-04-25 18:35 51.02621 71.46308 1169 ft 4 kts 68°
2026-04-25 18:35 51.02629 71.46383 1169 ft 9 kts 81°
2026-04-25 18:35 51.02645 71.46474 1170 ft 7 kts 60°
2026-04-25 18:35 51.02679 71.46535 1170 ft 6 kts 43°
2026-04-25 18:36 51.02709 71.46597 1170 ft 7 kts 85°
2026-04-25 18:36 51.02690 71.46658 1170 ft 5 kts 129°
2026-04-25 18:36 51.02656 71.46725 1169 ft 10 kts 118°
2026-04-25 18:36 51.02684 71.46827 1167 ft 11 kts 42°
2026-04-25 18:37 51.02754 71.46931 1168 ft 17 kts 44°
2026-04-25 18:37 51.02861 71.47102 1167 ft 22 kts 45°
2026-04-25 18:37 51.02970 71.47276 1165 ft 22 kts 44°
2026-04-25 18:37 51.03081 71.47450 1164 ft 21 kts 44°
2026-04-25 18:38 51.03185 71.47608 1164 ft 19 kts 45°
2026-04-25 18:38 51.03276 71.47757 1164 ft 17 kts 45°
2026-04-25 18:38 51.03360 71.47884 1164 ft 13 kts 44°
2026-04-25 18:38 51.03410 71.47971 1164 ft 9 kts 59°
2026-04-25 18:39 51.03424 71.48054 1164 ft 5 kts 88°
2026-04-25 18:39 51.03424 71.48101 1164 ft 4 kts 89°
2026-04-25 18:39 51.03425 71.48134 1164 ft 3 kts 89°
2026-04-25 18:39 51.03425 71.48176 1164 ft 3 kts 89°
2026-04-25 18:40 51.03422 71.48244 1164 ft 9 kts 102°
2026-04-25 18:40 51.03388 71.48324 1164 ft 7 kts 148°
2026-04-25 18:40 51.03341 71.48312 1164 ft 7 kts 218°
2026-04-25 18:40 51.03200 71.48097 1164 ft 62 kts 222°
2026-04-25 18:41 51.02723 71.47355 1164 ft 126 kts 224°
2026-04-25 18:41 51.01963 71.46181 1186 ft 173 kts 219°
2026-04-25 18:41 51.01104 71.44828 1904 ft 174 kts 221°
2026-04-25 18:41 51.00283 71.43472 2755 ft 168 kts 221°
2026-04-25 18:42 50.99487 71.42204 3554 ft 158 kts 220°
2026-04-25 18:42 50.98982 71.41408 4017 ft 155 kts 220°
2026-04-25 18:42 50.97910 71.39739 4554 ft 171 kts 222°
2026-04-25 18:42 50.97047 71.38345 4974 ft 182 kts 223°
2026-04-25 18:43 50.96086 71.36818 5254 ft 203 kts 224°
2026-04-25 18:43 50.95265 71.34792 5355 ft 239 kts 246°
2026-04-25 18:43 50.95116 71.32043 5906 ft 263 kts 272°
2026-04-25 18:43 50.95512 71.29234 6962 ft 256 kts 276°
2026-04-25 18:44 50.95940 71.26604 8034 ft 243 kts 276°
2026-04-25 18:44 50.96360 71.24023 8766 ft 245 kts 277°
2026-04-25 18:44 50.96803 71.21361 9376 ft 252 kts 277°
2026-04-25 18:44 50.97243 71.18628 9889 ft 262 kts 277°
2026-04-25 18:45 50.97715 71.15758 10331 ft 274 kts 278°
2026-04-25 18:45 50.98214 71.12736 10763 ft 287 kts 278°
2026-04-25 18:45 50.98735 71.09630 11407 ft 292 kts 278°
2026-04-25 18:45 50.99261 71.06513 12239 ft 291 kts 278°
2026-04-25 18:46 50.99783 71.03378 12854 ft 298 kts 278°
2026-04-25 18:46 51.00312 71.00192 13589 ft 300 kts 279°
2026-04-25 18:46 51.00859 70.96978 14348 ft 302 kts 279°
2026-04-25 18:46 51.01413 70.93710 15030 ft 306 kts 279°
2026-04-25 18:47 51.01966 70.90440 15739 ft 309 kts 279°
2026-04-25 18:47 51.02544 70.87150 16419 ft 313 kts 282°
2026-04-25 18:47 51.03323 70.83824 16986 ft 323 kts 287°
2026-04-25 18:47 51.04240 70.80526 17645 ft 327 kts 288°
2026-04-25 18:48 51.05188 70.77182 18309 ft 329 kts 288°
2026-04-25 18:48 51.06117 70.73875 18911 ft 333 kts 288°
2026-04-25 18:48 51.07066 70.70458 19508 ft 336 kts 287°
2026-04-25 18:48 51.08015 70.67030 20062 ft 340 kts 288°
2026-04-25 18:49 51.08986 70.63526 20591 ft 345 kts 287°
2026-04-25 18:49 51.09953 70.60033 21222 ft 346 kts 287°
2026-04-25 18:49 51.10923 70.56527 21790 ft 348 kts 287°
2026-04-25 18:49 51.11883 70.53040 22227 ft 354 kts 287°
2026-04-25 18:50 51.12889 70.49383 22780 ft 356 kts 287°
2026-04-25 18:50 51.13882 70.45773 23200 ft 361 kts 287°
2026-04-25 18:50 51.14901 70.42055 23415 ft 363 kts 287°
2026-04-25 18:50 51.15905 70.38397 23623 ft 362 kts 287°
2026-04-25 18:51 51.16923 70.34687 23815 ft 361 kts 286°
2026-04-25 18:51 51.17585 70.32259 23848 ft 364 kts 286°
2026-04-25 18:51 51.18943 70.27264 23862 ft 365 kts 286°
2026-04-25 18:51 51.19965 70.23495 24225 ft 370 kts 286°
2026-04-25 18:52 51.20918 70.19993 24887 ft 367 kts 286°
2026-04-25 18:52 51.21863 70.16514 25313 ft 370 kts 286°
2026-04-25 18:52 51.22835 70.12924 25740 ft 372 kts 286°
2026-04-25 18:52 51.23874 70.09086 26282 ft 372 kts 286°
2026-04-25 18:53 51.24908 70.05248 26609 ft 378 kts 286°
2026-04-25 18:53 51.25956 70.01357 27075 ft 379 kts 286°
2026-04-25 18:53 51.27051 69.97494 27580 ft 381 kts 288°
2026-04-25 18:53 51.28335 69.93746 27852 ft 392 kts 295°
2026-04-25 18:54 51.31460 69.86519 28645 ft 399 kts 298°
2026-04-25 18:54 51.33085 69.82923 29095 ft 400 kts 297°
2026-04-25 18:54 51.34736 69.79260 29351 ft 405 kts 297°
2026-04-25 18:55 51.36391 69.75584 29788 ft 405 kts 297°
2026-04-25 18:55 51.38049 69.71897 30166 ft 406 kts 297°
2026-04-25 18:55 51.39718 69.68175 30420 ft 410 kts 297°
2026-04-25 18:55 51.41378 69.64479 30834 ft 410 kts 297°
2026-04-25 18:56 51.43052 69.60744 31040 ft 415 kts 297°
2026-04-25 18:56 51.44735 69.56979 31328 ft 417 kts 297°
2026-04-25 18:56 51.46439 69.53162 31735 ft 417 kts 297°
2026-04-25 18:56 51.48135 69.49362 32027 ft 419 kts 297°
2026-04-25 18:57 51.49844 69.45515 32205 ft 424 kts 297°
2026-04-25 18:57 51.51562 69.41651 32576 ft 424 kts 297°
2026-04-25 18:57 51.53290 69.37756 32820 ft 426 kts 297°
2026-04-25 18:57 51.54442 69.35155 32991 ft 428 kts 297°
2026-04-25 18:58 51.56747 69.29939 33255 ft 433 kts 297°
2026-04-25 18:58 51.60245 69.22019 33790 ft 437 kts 296°
2026-04-25 18:58 51.62004 69.18027 34141 ft 436 kts 297°
2026-04-25 18:59 51.65510 69.10063 34782 ft 435 kts 297°
2026-04-25 18:59 51.68996 69.02108 35271 ft 435 kts 296°
2026-04-25 19:00 51.72496 68.94093 35807 ft 432 kts 296°
2026-04-25 19:00 51.74226 68.90123 35993 ft 433 kts 296°
2026-04-25 19:01 51.77687 68.82157 36549 ft 430 kts 296°
2026-04-25 19:01 51.79419 68.78165 36703 ft 432 kts 296°
2026-04-25 19:01 51.81126 68.74215 36917 ft 432 kts 296°
2026-04-25 19:01 51.82868 68.70193 37270 ft 429 kts 296°
2026-04-25 19:02 51.86287 68.62275 37699 ft 428 kts 296°
2026-04-25 19:02 51.87998 68.58296 37793 ft 430 kts 296°
2026-04-25 19:03 51.92569 68.47636 37798 ft 429 kts 296°
2026-04-25 19:03 51.96464 68.38303 37788 ft 425 kts 292°
2026-04-25 19:04 52.00414 68.25432 37796 ft 421 kts 287°
2026-04-25 19:05 52.05324 68.08155 37804 ft 420 kts 286°
2026-04-25 19:06 52.07768 67.99446 37789 ft 422 kts 286°
2026-04-25 19:06 52.11418 67.86369 37793 ft 422 kts 286°
2026-04-25 19:07 52.14904 67.73816 37795 ft 422 kts 286°
2026-04-25 19:08 52.18472 67.60881 37800 ft 424 kts 286°
2026-04-25 19:09 52.22884 67.44791 37806 ft 423 kts 286°
2026-04-25 19:10 52.26895 67.30053 37821 ft 426 kts 285°
2026-04-25 19:10 52.29301 67.21181 37819 ft 425 kts 285°
2026-04-25 19:11 52.31686 67.12325 37821 ft 426 kts 285°
2026-04-25 19:11 52.34086 67.03400 37803 ft 424 kts 285°
2026-04-25 19:12 52.36310 66.95101 37832 ft 426 kts 285°
2026-04-25 19:12 52.38647 66.86333 37826 ft 427 kts 285°
2026-04-25 19:13 52.41033 66.77354 37821 ft 428 kts 285°
2026-04-25 19:13 52.43394 66.68360 37824 ft 427 kts 285°
2026-04-25 19:14 52.45696 66.59380 37824 ft 427 kts 284°
2026-04-25 19:14 52.47996 66.50375 37823 ft 428 kts 284°
2026-04-25 19:15 52.50308 66.41301 37820 ft 429 kts 285°
2026-04-25 19:15 52.52603 66.32266 37820 ft 428 kts 284°
2026-04-25 19:16 52.54886 66.23244 37823 ft 427 kts 284°
2026-04-25 19:16 52.57137 66.14312 37834 ft 427 kts 284°
2026-04-25 19:17 52.59381 66.05380 37823 ft 424 kts 284°
2026-04-25 19:17 52.61635 65.96333 37833 ft 428 kts 284°
2026-04-25 19:18 52.63899 65.87242 37821 ft 425 kts 284°
2026-04-25 19:18 52.66135 65.78231 37833 ft 426 kts 284°
2026-04-25 19:19 52.68377 65.69145 37812 ft 429 kts 284°
2026-04-25 19:19 52.70634 65.59974 37819 ft 427 kts 284°
2026-04-25 19:20 52.72874 65.50832 37818 ft 429 kts 284°
2026-04-25 19:20 52.75111 65.41655 37820 ft 429 kts 284°
2026-04-25 19:21 52.77414 65.32527 37821 ft 429 kts 284°
2026-04-25 19:21 52.80895 65.18836 37822 ft 427 kts 283°
2026-04-25 19:22 52.83108 65.09692 37829 ft 428 kts 283°
2026-04-25 19:23 52.86342 64.96148 37828 ft 426 kts 283°
2026-04-25 19:23 52.89621 64.82367 37824 ft 429 kts 283°
2026-04-25 19:24 52.91822 64.73080 37822 ft 427 kts 283°
2026-04-25 19:25 52.96168 64.54625 37820 ft 427 kts 283°
2026-04-25 19:25 52.98338 64.45351 37828 ft 430 kts 283°
2026-04-25 19:26 53.00505 64.36034 37815 ft 432 kts 283°
2026-04-25 19:26 53.02659 64.26756 37815 ft 428 kts 282°
2026-04-25 19:27 53.04459 64.18954 37824 ft 432 kts 283°
2026-04-25 19:27 53.06891 64.08377 37817 ft 433 kts 282°
2026-04-25 19:28 53.09003 63.99152 37819 ft 432 kts 283°
2026-04-25 19:28 53.11152 63.89742 37824 ft 430 kts 283°
2026-04-25 19:29 53.13272 63.80399 37826 ft 430 kts 283°
2026-04-25 19:29 53.15384 63.71052 37819 ft 431 kts 283°
2026-04-25 19:30 53.17493 63.61639 37821 ft 432 kts 282°
2026-04-25 19:30 53.19017 63.52052 37818 ft 423 kts 274°
2026-04-25 19:31 53.20035 63.42401 37813 ft 422 kts 273°
2026-04-25 19:31 53.21001 63.32668 37818 ft 424 kts 272°
2026-04-25 19:32 53.21954 63.22932 37812 ft 423 kts 272°
2026-04-25 19:32 53.22741 63.14825 37822 ft 423 kts 272°
2026-04-25 19:33 53.23824 63.03457 37818 ft 424 kts 272°
2026-04-25 19:33 53.24746 62.93704 37819 ft 422 kts 272°
2026-04-25 19:34 53.25657 62.83965 37813 ft 424 kts 273°
2026-04-25 19:34 53.26567 62.74148 37807 ft 425 kts 272°
2026-04-25 19:35 53.27465 62.64354 37802 ft 425 kts 273°
2026-04-25 19:35 53.28358 62.54521 37808 ft 427 kts 273°
2026-04-25 19:36 53.29246 62.44670 37804 ft 427 kts 273°
2026-04-25 19:36 53.30136 62.34790 37806 ft 426 kts 272°
2026-04-25 19:37 53.31007 62.25002 37804 ft 426 kts 272°
2026-04-25 19:37 53.31879 62.15129 37804 ft 425 kts 272°
2026-04-25 19:38 53.32740 62.05258 37806 ft 426 kts 272°
2026-04-25 19:38 53.33588 61.95433 37805 ft 427 kts 272°
2026-04-25 19:39 53.34433 61.85567 37801 ft 427 kts 272°
2026-04-25 19:39 53.35273 61.75667 37807 ft 428 kts 272°
2026-04-25 19:40 53.36111 61.65633 37806 ft 431 kts 272°
2026-04-25 19:40 53.36937 61.55696 37807 ft 427 kts 272°
2026-04-25 19:41 53.37750 61.45815 37808 ft 428 kts 272°
2026-04-25 19:41 53.38424 61.37500 37807 ft 429 kts 272°
2026-04-25 19:42 53.39361 61.25885 37808 ft 428 kts 272°
2026-04-25 19:42 53.40497 61.16009 37803 ft 435 kts 281°
2026-04-25 19:43 53.42782 61.06429 37805 ft 439 kts 289°
2026-04-25 19:43 53.45425 60.97221 37803 ft 440 kts 290°
2026-04-25 19:44 53.48122 60.87862 37801 ft 441 kts 289°
2026-04-25 19:44 53.50792 60.78511 37797 ft 441 kts 289°
2026-04-25 19:45 53.53445 60.69164 37793 ft 441 kts 289°
2026-04-25 19:45 53.56089 60.59795 37792 ft 441 kts 289°
2026-04-25 19:46 53.58734 60.50386 37793 ft 441 kts 289°
2026-04-25 19:46 53.61338 60.41078 37785 ft 441 kts 289°
2026-04-25 19:47 53.63966 60.31636 37788 ft 442 kts 289°
2026-04-25 19:47 53.66572 60.22246 37780 ft 441 kts 289°
2026-04-25 19:48 53.69191 60.12772 37782 ft 441 kts 289°
2026-04-25 19:48 53.71779 60.03360 37786 ft 443 kts 289°
2026-04-25 19:49 53.73951 59.95429 37781 ft 442 kts 289°
2026-04-25 19:49 53.76963 59.84390 37782 ft 442 kts 289°
2026-04-25 19:50 53.80814 59.70193 37773 ft 442 kts 289°
2026-04-25 19:51 53.83380 59.60686 37773 ft 442 kts 289°
2026-04-25 19:51 53.85941 59.51155 37765 ft 443 kts 289°
2026-04-25 19:52 53.88488 59.41572 37770 ft 442 kts 288°
2026-04-25 19:52 53.90424 59.31731 37764 ft 437 kts 280°
2026-04-25 19:53 53.91995 59.21724 37764 ft 437 kts 280°
2026-04-25 19:53 53.93521 59.11756 37760 ft 437 kts 280°
2026-04-25 19:54 53.95058 59.01648 37742 ft 438 kts 280°
2026-04-25 19:54 53.96567 58.91662 37739 ft 437 kts 280°
2026-04-25 19:55 53.98076 58.81601 37733 ft 438 kts 280°
2026-04-25 19:55 53.99582 58.71496 37739 ft 438 kts 280°
2026-04-25 19:56 54.01071 58.61462 37724 ft 437 kts 280°
2026-04-25 19:56 54.02560 58.51356 37726 ft 437 kts 280°
2026-04-25 19:57 54.04211 58.41296 37727 ft 441 kts 285°
2026-04-25 19:57 54.06270 58.31434 37730 ft 441 kts 286°
2026-04-25 19:58 54.08366 58.21556 37730 ft 441 kts 286°
2026-04-25 19:58 54.10437 58.11643 37734 ft 442 kts 285°
2026-04-25 19:59 54.12489 58.01727 37734 ft 444 kts 285°
2026-04-25 19:59 54.14545 57.91725 37733 ft 442 kts 286°
2026-04-25 20:00 54.16587 57.81728 37742 ft 441 kts 286°
2026-04-25 20:00 54.18601 57.71807 37743 ft 442 kts 286°
2026-04-25 20:01 54.21628 57.56805 37743 ft 441 kts 286°
2026-04-25 20:01 54.23615 57.46895 37748 ft 440 kts 286°
2026-04-25 20:02 54.25596 57.36959 37738 ft 440 kts 286°
2026-04-25 20:02 54.27580 57.26963 37733 ft 439 kts 285°
2026-04-25 20:03 54.29542 57.17015 37736 ft 440 kts 285°
2026-04-25 20:03 54.31490 57.07085 37743 ft 439 kts 285°
2026-04-25 20:04 54.33440 56.97099 37754 ft 438 kts 286°
2026-04-25 20:04 54.35364 56.87197 37753 ft 437 kts 286°
2026-04-25 20:05 54.37306 56.77145 37751 ft 439 kts 286°
2026-04-25 20:05 54.39219 56.67191 37756 ft 439 kts 286°
2026-04-25 20:06 54.41136 56.57171 37766 ft 439 kts 286°
2026-04-25 20:06 54.43040 56.47163 37769 ft 438 kts 286°
2026-04-25 20:07 54.44939 56.37127 37765 ft 438 kts 286°
2026-04-25 20:07 54.46815 56.27157 37772 ft 437 kts 285°
2026-04-25 20:08 54.48696 56.17104 37770 ft 437 kts 285°
2026-04-25 20:08 54.50565 56.07068 37765 ft 438 kts 285°
2026-04-25 20:09 54.52412 55.97097 37764 ft 437 kts 285°
2026-04-25 20:09 54.54245 55.87140 37766 ft 437 kts 285°
2026-04-25 20:10 54.56063 55.77037 37765 ft 437 kts 285°
2026-04-25 20:10 54.57849 55.66999 37762 ft 436 kts 285°
2026-04-25 20:11 54.59624 55.56988 37759 ft 436 kts 285°
2026-04-25 20:11 54.61400 55.46914 37763 ft 436 kts 285°
2026-04-25 20:12 54.63165 55.36848 37742 ft 435 kts 285°
2026-04-25 20:12 54.64625 55.28478 37751 ft 434 kts 285°
2026-04-25 20:13 54.66629 55.16753 37743 ft 433 kts 284°
2026-04-25 20:13 54.68263 55.06652 37740 ft 435 kts 284°
2026-04-25 20:14 54.69893 54.96536 37736 ft 434 kts 284°
2026-04-25 20:14 54.71526 54.86380 37734 ft 435 kts 284°
2026-04-25 20:15 54.73149 54.76226 37740 ft 434 kts 284°
2026-04-25 20:15 54.74762 54.66082 37735 ft 435 kts 284°
2026-04-25 20:16 54.76360 54.55965 37726 ft 434 kts 284°
2026-04-25 20:16 54.77948 54.45841 37727 ft 435 kts 284°
2026-04-25 20:17 54.79538 54.35655 37725 ft 434 kts 284°
2026-04-25 20:17 54.81124 54.25428 37718 ft 436 kts 284°
2026-04-25 20:18 54.82703 54.15202 37728 ft 435 kts 284°
2026-04-25 20:18 54.84274 54.05040 37735 ft 436 kts 284°
2026-04-25 20:19 54.85847 53.94823 37744 ft 436 kts 284°
2026-04-25 20:19 54.87425 53.84492 37734 ft 437 kts 284°
2026-04-25 20:20 54.88983 53.74232 37728 ft 435 kts 284°
2026-04-25 20:20 54.90523 53.64024 37721 ft 436 kts 284°
2026-04-25 20:21 54.92054 53.53846 37722 ft 435 kts 284°
2026-04-25 20:21 54.93597 53.43541 37720 ft 435 kts 284°
2026-04-25 20:22 54.94871 53.34980 37722 ft 436 kts 283°
2026-04-25 20:22 54.96643 53.22993 37721 ft 436 kts 284°
2026-04-25 20:23 54.98148 53.12686 37717 ft 435 kts 284°
2026-04-25 20:23 54.99636 53.02428 37712 ft 435 kts 284°
2026-04-25 20:24 55.01113 52.92180 37712 ft 436 kts 284°
2026-04-25 20:24 55.02585 52.81902 37706 ft 435 kts 284°
2026-04-25 20:25 55.04055 52.71574 37705 ft 436 kts 284°
2026-04-25 20:25 55.05517 52.61241 37708 ft 435 kts 284°
2026-04-25 20:26 55.06966 52.50947 37704 ft 435 kts 284°
2026-04-25 20:26 55.08409 52.40620 37700 ft 435 kts 284°
2026-04-25 20:27 55.09833 52.30352 37703 ft 435 kts 283°
2026-04-25 20:27 55.11249 52.20076 37705 ft 435 kts 283°
2026-04-25 20:28 55.12670 52.09693 37720 ft 435 kts 283°
2026-04-25 20:28 55.14065 51.99429 37729 ft 434 kts 283°
2026-04-25 20:29 55.15461 51.89082 37731 ft 434 kts 283°
2026-04-25 20:29 55.16841 51.78793 37732 ft 433 kts 283°
2026-04-25 20:30 55.18211 51.68498 37731 ft 434 kts 283°
2026-04-25 20:30 55.19572 51.58207 37728 ft 433 kts 283°
2026-04-25 20:31 55.20928 51.47871 37728 ft 433 kts 283°
2026-04-25 20:31 55.22284 51.37467 37729 ft 433 kts 283°
2026-04-25 20:32 55.23615 51.27186 37732 ft 432 kts 282°
2026-04-25 20:32 55.24947 51.16817 37724 ft 432 kts 282°
2026-04-25 20:33 55.26272 51.06424 37721 ft 431 kts 282°
2026-04-25 20:33 55.27349 50.97824 37718 ft 431 kts 282°
2026-04-25 20:34 55.28761 50.85762 37714 ft 432 kts 282°
2026-04-25 20:34 55.29971 50.75285 37715 ft 432 kts 282°
2026-04-25 20:35 55.31168 50.64871 37715 ft 433 kts 282°
2026-04-25 20:35 55.32359 50.54449 37721 ft 432 kts 282°
2026-04-25 20:36 55.33537 50.44066 37724 ft 432 kts 282°
2026-04-25 20:36 55.34701 50.33723 37733 ft 432 kts 281°
2026-04-25 20:37 55.35860 50.23338 37738 ft 430 kts 281°
2026-04-25 20:37 55.37013 50.12927 37740 ft 430 kts 281°
2026-04-25 20:38 55.38160 50.02490 37740 ft 431 kts 281°
2026-04-25 20:38 55.39109 49.92064 37742 ft 431 kts 276°
2026-04-25 20:39 55.39622 49.81437 37744 ft 432 kts 275°
2026-04-25 20:39 55.40020 49.72642 37749 ft 432 kts 275°
2026-04-25 20:40 55.40596 49.60267 37751 ft 433 kts 275°
2026-04-25 20:40 55.41094 49.49635 37747 ft 432 kts 276°
2026-04-25 20:41 55.41587 49.38988 37749 ft 432 kts 276°
2026-04-25 20:41 55.42067 49.28468 37748 ft 432 kts 275°
2026-04-25 20:42 55.42543 49.17840 37750 ft 431 kts 275°
2026-04-25 20:42 55.43006 49.07332 37744 ft 431 kts 275°
2026-04-25 20:43 55.43468 48.96628 37739 ft 432 kts 275°
2026-04-25 20:43 55.43915 48.86062 37742 ft 432 kts 275°
2026-04-25 20:44 55.44353 48.75492 37739 ft 432 kts 275°
2026-04-25 20:44 55.44784 48.64860 37738 ft 432 kts 275°
2026-04-25 20:45 55.45416 48.54254 37735 ft 432 kts 281°
2026-04-25 20:45 55.46920 48.43947 37739 ft 430 kts 287°
2026-04-25 20:46 55.48667 48.33853 37744 ft 429 kts 287°
2026-04-25 20:46 55.50433 48.23712 37747 ft 429 kts 287°
2026-04-25 20:47 55.52177 48.13593 37752 ft 430 kts 287°
2026-04-25 20:47 55.53919 48.03414 37750 ft 430 kts 287°
2026-04-25 20:48 55.55644 47.93268 37754 ft 431 kts 286°
2026-04-25 20:48 55.57360 47.83107 37750 ft 431 kts 286°
2026-04-25 20:49 55.59072 47.72909 37753 ft 430 kts 286°
2026-04-25 20:49 55.60770 47.62744 37750 ft 429 kts 286°
2026-04-25 20:50 55.62459 47.52568 37746 ft 428 kts 286°
2026-04-25 20:50 55.64130 47.42438 37747 ft 429 kts 286°
2026-04-25 20:51 55.65816 47.32156 37748 ft 430 kts 285°
2026-04-25 20:51 55.67479 47.21962 37754 ft 429 kts 285°
2026-04-25 20:52 55.68861 47.13435 37750 ft 429 kts 285°
2026-04-25 20:52 55.70784 47.01527 37745 ft 429 kts 285°
2026-04-25 20:53 55.72420 46.91326 37744 ft 428 kts 285°
2026-04-25 20:53 55.74057 46.81062 37735 ft 429 kts 285°
2026-04-25 20:54 55.75679 46.70829 37729 ft 428 kts 285°
2026-04-25 20:54 55.77282 46.60651 37734 ft 427 kts 285°
2026-04-25 20:55 55.78818 46.50389 37747 ft 426 kts 282°
2026-04-25 20:55 55.79590 46.39958 37753 ft 427 kts 275°
2026-04-25 20:56 55.79984 46.29286 37747 ft 428 kts 273°
2026-04-25 20:56 55.80335 46.18758 37746 ft 427 kts 273°
2026-04-25 20:57 55.80673 46.08147 37747 ft 428 kts 273°
2026-04-25 20:57 55.80997 45.97598 37753 ft 428 kts 273°
2026-04-25 20:58 55.81311 45.87029 37750 ft 427 kts 273°
2026-04-25 20:58 55.81614 45.76471 37743 ft 426 kts 273°
2026-04-25 20:59 55.81908 45.65944 37739 ft 426 kts 273°
2026-04-25 20:59 55.82192 45.55401 37738 ft 426 kts 273°
2026-04-25 21:00 55.82424 45.46560 37732 ft 427 kts 273°
2026-04-25 21:01 55.82866 45.28966 37732 ft 427 kts 272°
2026-04-25 21:01 55.83122 45.18303 37729 ft 427 kts 272°
2026-04-25 21:02 55.83366 45.07705 37730 ft 427 kts 272°
2026-04-25 21:02 55.83602 44.97104 37728 ft 427 kts 272°
2026-04-25 21:03 55.83833 44.86538 37734 ft 427 kts 272°
2026-04-25 21:03 55.84059 44.75930 37741 ft 427 kts 272°
2026-04-25 21:04 55.84276 44.65337 37742 ft 426 kts 272°
2026-04-25 21:04 55.84484 44.54686 37743 ft 427 kts 272°
2026-04-25 21:05 55.84682 44.44109 37745 ft 426 kts 272°
2026-04-25 21:05 55.84870 44.33533 37743 ft 426 kts 271°
2026-04-25 21:06 55.85049 44.23001 37740 ft 426 kts 271°
2026-04-25 21:06 55.85220 44.12382 37732 ft 426 kts 271°
2026-04-25 21:07 55.85380 44.01848 37725 ft 426 kts 271°
2026-04-25 21:07 55.85532 43.91242 37712 ft 426 kts 271°
2026-04-25 21:08 55.85675 43.80654 37713 ft 427 kts 271°
2026-04-25 21:08 55.85810 43.70047 37714 ft 427 kts 271°
2026-04-25 21:09 55.85994 43.54101 37712 ft 429 kts 271°
2026-04-25 21:09 55.86109 43.43446 37717 ft 427 kts 271°
2026-04-25 21:10 55.86219 43.32899 37724 ft 426 kts 271°
2026-04-25 21:10 55.86319 43.22320 37717 ft 427 kts 271°
2026-04-25 21:11 55.86411 43.11729 37725 ft 427 kts 271°
2026-04-25 21:11 55.86492 43.01175 37725 ft 426 kts 271°
2026-04-25 21:12 55.86566 42.90509 37719 ft 426 kts 270°
2026-04-25 21:12 55.86620 42.81758 37710 ft 426 kts 270°
2026-04-25 21:13 55.86684 42.69366 37699 ft 425 kts 270°
2026-04-25 21:13 55.86730 42.58786 37692 ft 426 kts 270°
2026-04-25 21:14 55.86766 42.48241 37694 ft 426 kts 270°
2026-04-25 21:14 55.86793 42.37711 37693 ft 425 kts 270°
2026-04-25 21:15 55.86811 42.27134 37691 ft 425 kts 270°
2026-04-25 21:15 55.86821 42.16535 37692 ft 425 kts 270°
2026-04-25 21:16 55.86821 42.05991 37684 ft 424 kts 270°
2026-04-25 21:16 55.86813 41.95489 37694 ft 425 kts 270°
2026-04-25 21:17 55.86795 41.84922 37695 ft 424 kts 270°
2026-04-25 21:17 55.86725 41.74417 37698 ft 424 kts 268°
2026-04-25 21:18 55.86412 41.63872 37689 ft 424 kts 267°
2026-04-25 21:18 55.86066 41.53394 37682 ft 424 kts 267°
2026-04-25 21:19 55.85724 41.42851 37677 ft 424 kts 267°
2026-04-25 21:19 55.85382 41.32349 37679 ft 424 kts 266°
2026-04-25 21:20 55.85095 41.23641 37677 ft 423 kts 266°
2026-04-25 21:20 55.84680 41.11332 37341 ft 427 kts 266°
2026-04-25 21:21 55.84496 41.05986 37044 ft 424 kts 266°
2026-04-25 21:21 55.84317 41.00833 36750 ft 419 kts 266°
2026-04-25 21:21 55.84134 40.95623 36354 ft 416 kts 266°
2026-04-25 21:21 55.83953 40.90527 35955 ft 413 kts 266°
2026-04-25 21:22 55.83767 40.85370 35542 ft 410 kts 266°
2026-04-25 21:22 55.83585 40.80362 35141 ft 407 kts 266°
2026-04-25 21:22 55.83401 40.75352 34739 ft 405 kts 267°
2026-04-25 21:22 55.83214 40.70327 34326 ft 404 kts 267°
2026-04-25 21:23 55.83026 40.65328 33942 ft 404 kts 267°
2026-04-25 21:23 55.82835 40.60344 33575 ft 405 kts 267°
2026-04-25 21:23 55.82636 40.55289 33107 ft 405 kts 267°
2026-04-25 21:23 55.82435 40.50315 32622 ft 402 kts 267°
2026-04-25 21:24 55.82231 40.45323 32126 ft 399 kts 268°
2026-04-25 21:24 55.82031 40.40427 31628 ft 396 kts 268°
2026-04-25 21:24 55.81831 40.35536 31111 ft 392 kts 268°
2026-04-25 21:24 55.81631 40.30713 30472 ft 389 kts 268°
2026-04-25 21:25 55.81432 40.25961 29912 ft 383 kts 268°
2026-04-25 21:25 55.81233 40.21262 29381 ft 377 kts 268°
2026-04-25 21:25 55.81033 40.16601 28847 ft 372 kts 267°
2026-04-25 21:25 55.80837 40.12040 28328 ft 366 kts 267°
2026-04-25 21:26 55.80643 40.07569 27861 ft 360 kts 268°
2026-04-25 21:26 55.80448 40.03131 27274 ft 357 kts 267°
2026-04-25 21:26 55.80253 39.98713 26809 ft 352 kts 266°
2026-04-25 21:26 55.80060 39.94405 26417 ft 350 kts 266°
2026-04-25 21:27 55.79866 39.90073 26014 ft 350 kts 266°
2026-04-25 21:27 55.79668 39.85716 25670 ft 349 kts 266°
2026-04-25 21:27 55.79472 39.81435 25630 ft 344 kts 266°
2026-04-25 21:27 55.79233 39.77197 25625 ft 348 kts 265°
2026-04-25 21:28 55.78944 39.72850 25620 ft 351 kts 264°
2026-04-25 21:28 55.78651 39.68568 25617 ft 351 kts 265°
2026-04-25 21:28 55.78357 39.64241 25611 ft 350 kts 265°
2026-04-25 21:28 55.78064 39.59922 25619 ft 349 kts 264°
2026-04-25 21:29 55.77773 39.55638 25609 ft 349 kts 265°
2026-04-25 21:29 55.77478 39.51315 25265 ft 345 kts 264°
2026-04-25 21:29 55.77190 39.47094 24573 ft 346 kts 264°
2026-04-25 21:29 55.76901 39.42868 24001 ft 343 kts 264°
2026-04-25 21:30 55.76611 39.38654 23413 ft 341 kts 264°
2026-04-25 21:30 55.76325 39.34528 22946 ft 336 kts 263°
2026-04-25 21:30 55.76036 39.30378 22538 ft 334 kts 263°
2026-04-25 21:30 55.75844 39.27657 22287 ft 334 kts 263°
2026-04-25 21:31 55.75457 39.22174 21757 ft 334 kts 263°
2026-04-25 21:31 55.75167 39.18105 21377 ft 333 kts 263°
2026-04-25 21:31 55.74876 39.14019 20985 ft 332 kts 263°
2026-04-25 21:31 55.74588 39.09976 20591 ft 330 kts 262°
2026-04-25 21:32 55.74284 39.05896 20206 ft 327 kts 263°
2026-04-25 21:32 55.73996 39.01884 19814 ft 328 kts 263°
2026-04-25 21:32 55.73738 38.97875 19607 ft 322 kts 268°
2026-04-25 21:32 55.74133 38.93972 19518 ft 328 kts 292°
2026-04-25 21:33 55.75433 38.90519 19180 ft 340 kts 306°
2026-04-25 21:33 55.76982 38.87358 18787 ft 339 kts 307°
2026-04-25 21:33 55.78526 38.84233 18491 ft 332 kts 306°
2026-04-25 21:33 55.80042 38.81150 18250 ft 331 kts 307°
2026-04-25 21:34 55.81581 38.78012 17991 ft 332 kts 306°
2026-04-25 21:34 55.83059 38.74872 17741 ft 332 kts 306°
2026-04-25 21:34 55.84548 38.71717 17475 ft 328 kts 306°
2026-04-25 21:34 55.85977 38.68580 17227 ft 328 kts 305°
2026-04-25 21:35 55.87425 38.65412 16970 ft 328 kts 306°
2026-04-25 21:35 55.88875 38.62257 16713 ft 327 kts 306°
2026-04-25 21:35 55.90323 38.59112 16453 ft 326 kts 306°
2026-04-25 21:35 55.91750 38.56013 16200 ft 325 kts 306°
2026-04-25 21:36 55.93193 38.52881 15951 ft 325 kts 306°
2026-04-25 21:36 55.94638 38.49762 15687 ft 324 kts 306°
2026-04-25 21:36 55.96069 38.46649 15428 ft 321 kts 306°
2026-04-25 21:36 55.97494 38.43614 15170 ft 321 kts 306°
2026-04-25 21:37 55.98918 38.40482 14912 ft 320 kts 305°
2026-04-25 21:37 55.99857 38.38401 14750 ft 320 kts 306°
2026-04-25 21:37 56.01727 38.34275 14240 ft 319 kts 305°
2026-04-25 21:37 56.03125 38.31203 13847 ft 317 kts 305°
2026-04-25 21:38 56.04515 38.28160 13461 ft 313 kts 305°
2026-04-25 21:38 56.05896 38.25122 13075 ft 310 kts 305°
2026-04-25 21:38 56.07260 38.22110 12688 ft 311 kts 304°
2026-04-25 21:38 56.08631 38.19086 12295 ft 311 kts 305°
2026-04-25 21:39 56.10006 38.16067 11904 ft 307 kts 306°
2026-04-25 21:39 56.11355 38.13132 11592 ft 302 kts 305°
2026-04-25 21:39 56.12669 38.10202 11546 ft 299 kts 304°
2026-04-25 21:39 56.13959 38.07315 11382 ft 291 kts 304°
2026-04-25 21:40 56.15232 38.04501 10776 ft 287 kts 305°
2026-04-25 21:40 56.16463 38.01793 10389 ft 277 kts 305°
2026-04-25 21:40 56.17679 37.99097 9760 ft 276 kts 304°
2026-04-25 21:40 56.18882 37.96415 9115 ft 276 kts 305°
2026-04-25 21:41 56.20088 37.93727 8529 ft 274 kts 305°
2026-04-25 21:41 56.21289 37.91061 7906 ft 274 kts 305°
2026-04-25 21:41 56.22474 37.88423 7284 ft 276 kts 306°
2026-04-25 21:41 56.23737 37.85796 6700 ft 277 kts 308°
2026-04-25 21:42 56.24785 37.82932 6309 ft 262 kts 283°
2026-04-25 21:42 56.24893 37.79838 6075 ft 245 kts 259°
2026-04-25 21:42 56.24520 37.76829 5533 ft 245 kts 248°
2026-04-25 21:42 56.23843 37.74062 5093 ft 241 kts 242°
2026-04-25 21:43 56.23115 37.71370 4619 ft 240 kts 242°
2026-04-25 21:43 56.22377 37.68641 4159 ft 238 kts 238°
2026-04-25 21:43 56.21238 37.66637 3760 ft 232 kts 204°
2026-04-25 21:43 56.19644 37.66260 3511 ft 230 kts 175°
2026-04-25 21:44 56.18077 37.66829 3248 ft 226 kts 171°
2026-04-25 21:44 56.16548 37.67424 3040 ft 220 kts 171°
2026-04-25 21:44 56.13702 37.68582 3023 ft 205 kts 170°
2026-04-25 21:45 56.12275 37.69177 2990 ft 209 kts 169°
2026-04-25 21:45 56.11329 37.69575 3001 ft 206 kts 170°
2026-04-25 21:45 56.09499 37.70351 3021 ft 195 kts 170°
2026-04-25 21:45 56.08226 37.70891 3004 ft 180 kts 170°
2026-04-25 21:46 56.07053 37.71385 3005 ft 167 kts 170°
2026-04-25 21:46 56.05899 37.71804 3005 ft 171 kts 178°
2026-04-25 21:46 56.04743 37.71418 3002 ft 170 kts 209°
2026-04-25 21:46 56.03854 37.70028 3000 ft 172 kts 231°
2026-04-25 21:47 56.03372 37.68044 3002 ft 176 kts 252°
2026-04-25 21:47 56.03075 37.65899 2996 ft 175 kts 250°
2026-04-25 21:47 56.02753 37.63797 2993 ft 175 kts 251°
2026-04-25 21:47 56.02423 37.61746 2988 ft 163 kts 248°
2026-04-25 21:48 56.02113 37.59839 3004 ft 160 kts 250°
2026-04-25 21:48 56.01825 37.57914 2942 ft 156 kts 251°
2026-04-25 21:48 56.01546 37.56045 2708 ft 155 kts 251°
2026-04-25 21:48 56.01271 37.54186 2500 ft 152 kts 251°
2026-04-25 21:49 56.01003 37.52371 2332 ft 146 kts 250°
2026-04-25 21:49 56.00747 37.50644 2064 ft 140 kts 250°
2026-04-25 21:49 56.00483 37.48941 1793 ft 143 kts 249°
2026-04-25 21:49 56.00246 37.47206 1610 ft 145 kts 250°
2026-04-25 21:50 55.99979 37.45467 1437 ft 144 kts 249°
2026-04-25 21:50 55.99716 37.43748 1272 ft 141 kts 251°
2026-04-25 21:50 55.99462 37.42017 1075 ft 143 kts 252°
2026-04-25 21:50 55.99207 37.40276 882 ft 144 kts 253°
2026-04-25 21:51 55.98939 37.38540 689 ft 144 kts 253°
2026-04-25 21:51 55.98684 37.36825 586 ft 132 kts 253°
2026-04-25 21:51 55.98508 37.35650 647 ft 63 kts 256°
2026-04-25 21:51 55.98435 37.35138 642 ft 32 kts 256°
2026-04-25 21:52 55.98339 37.34851 633 ft 22 kts 226°
2026-04-25 21:52 55.98253 37.34707 632 ft 11 kts 221°
2026-04-25 21:52 55.98212 37.34659 634 ft 4 kts 188°
2026-04-25 21:52 55.98191 37.34698 635 ft 8 kts 100°
2026-04-25 21:53 55.98209 37.34832 635 ft 13 kts 73°
2026-04-25 21:53 55.98249 37.35098 636 ft 25 kts 75°
2026-04-25 21:53 55.98292 37.35387 641 ft 22 kts 73°
2026-04-25 21:53 55.98330 37.35634 643 ft 17 kts 75°
2026-04-25 21:54 55.98357 37.35818 643 ft 14 kts 73°
2026-04-25 21:54 55.98359 37.35963 641 ft 11 kts 134°
2026-04-25 21:54 55.98268 37.36019 638 ft 17 kts 166°
2026-04-25 21:54 55.98140 37.36080 636 ft 19 kts 165°
2026-04-25 21:55 55.98013 37.36140 636 ft 18 kts 164°
2026-04-25 21:55 55.97899 37.36197 641 ft 15 kts 165°
2026-04-25 21:55 55.97770 37.36257 647 ft 20 kts 165°
2026-04-25 21:55 55.97648 37.36314 652 ft 15 kts 164°
2026-04-25 21:56 55.97559 37.36369 653 ft 12 kts 154°
2026-04-25 21:56 55.97509 37.36422 653 ft 12 kts 143°
2026-04-25 21:56 55.97428 37.36592 648 ft 15 kts 119°
2026-04-25 21:56 55.97375 37.36780 635 ft 18 kts 116°
2026-04-25 21:57 55.97302 37.37034 612 ft 27 kts 115°
2026-04-25 21:57 55.97222 37.37324 592 ft 23 kts 116°
2026-04-25 21:57 55.97156 37.37558 586 ft 20 kts 117°
2026-04-25 21:57 55.97097 37.37765 591 ft 15 kts 116°
2026-04-25 21:58 55.97076 37.37932 595 ft 12 kts 89°
2026-04-25 21:58 55.97082 37.38065 597 ft 9 kts 83°
2026-04-25 21:58 55.97090 37.38168 601 ft 8 kts 82°
2026-04-25 21:58 55.97102 37.38285 603 ft 9 kts 75°
2026-04-25 21:59 55.97116 37.38386 605 ft 7 kts 76°
2026-04-25 21:59 55.97130 37.38489 607 ft 12 kts 76°
2026-04-25 21:59 55.97163 37.38617 608 ft 10 kts 14°
2026-04-25 22:00 55.97252 37.38697 610 ft 6 kts 74°
2026-04-25 22:00 55.97265 37.38783 611 ft 9 kts 75°
2026-04-25 22:00 55.97278 37.38873 611 ft 5 kts 75°
2026-04-25 22:00 55.97287 37.38935 611 ft 5 kts 75°
2026-04-25 22:01 55.97312 37.39001 613 ft 6 kts 21°
2026-04-25 22:01 55.97359 37.38993 613 ft 6 kts 345°
2026-04-25 22:01 55.97382 37.38981 613 ft 0 kts 345°